Change the Weather History Date:

Saturday, January 12, 2013

  Actual Average Record
Temperature  
Mean Temperature 52 °F -  
Max Temperature 59 °F 28 °F 59 °F (2013)
Min Temperature 46 °F 11 °F -11 °F (1981)
Degree Days  
Heating Degree Days 12    
Growing Degree Days 2 (Base 50)    
Moisture  
Dew Point 49 °F    
Average Humidity 90    
Maximum Humidity 97    
Minimum Humidity 75    
Precipitation  
Precipitation 0.01 in - - ()
Sea Level Pressure  
Sea Level Pressure 30.01 in    
Wind  
Wind Speed 6 mph (SSW)    
Max Wind Speed 13 mph    
Max Gust Speed 21 mph    
Visibility 5 miles    
Events Fog    
Averages and records for this station are not official NWS values.
T = Trace of Precipitation, MM = Missing Value Source: NWS Daily Summary

Daily Weather History Graph

Daily Weather History Graph

Search for Another Location

Airport or City:

Trip Planner

Search our weather history database for the weather conditions in past years. The results will help you decide how hot, cold, wet, or windy it might be!

Date:

Astronomy

Jan. 12, 2013 Rise Set
Actual Time 7:46 AM EST 5:12 PM EST
Civil Twilight 7:15 AM EST 5:43 PM EST
Nautical Twilight 6:41 AM EST 6:17 PM EST
Astronomical Twilight 6:07 AM EST 6:51 PM EST
Moon 8:02 AM EST (1/12) 6:41 PM EST (1/12)
Length of Visible Light 10h 27m
Length of Day
9h 26m
New Moon, 1% of the Moon is Illuminated
Jan 12
New Moon
Jan 18
First Quarter
Jan 26
Full
Feb 3
Last Quarter
Feb 10
New

Hourly Weather History & Observations

Time (EST) Temp. Windchill Dew Point Humidity Pressure Visibility Wind Dir Wind Speed Gust Speed Precip Events Conditions
12:51 AM 46.4 °F 45.2 °F 44.6 °F 93% 29.97 in 2.5 mi South 3.5 mph - N/A   Scattered Clouds
12:53 AM 46.0 °F 44.8 °F 45.0 °F 96% 29.99 in 1.5 mi Variable 3.5 mph - N/A   Scattered Clouds
12:55 AM 46.4 °F 43.5 °F 44.6 °F 93% 29.97 in 1.0 mi South 5.8 mph - N/A   Mist
1:01 AM 46.4 °F 44.3 °F 44.6 °F 93% 29.97 in 0.2 mi Variable 4.6 mph - N/A Fog Fog
1:53 AM 46.0 °F 43.1 °F 45.0 °F 96% 30.00 in 0.2 mi South 5.8 mph - N/A Fog Fog
2:53 AM 46.0 °F 43.9 °F 44.1 °F 93% 30.01 in 0.2 mi Variable 4.6 mph - N/A Fog Fog
3:53 AM 46.0 °F 43.9 °F 45.0 °F 96% 30.01 in 0.2 mi South 4.6 mph - N/A Fog Fog
4:53 AM 46.0 °F 42.5 °F 45.0 °F 96% 30.00 in 0.2 mi South 6.9 mph - 0.01 in Fog Fog
5:53 AM 48.0 °F - 46.0 °F 93% 30.01 in 0.2 mi Variable 4.6 mph - N/A Fog Fog
6:53 AM 48.9 °F - 48.0 °F 97% 30.02 in 0.2 mi South 6.9 mph - N/A Fog Fog
7:53 AM 50.0 °F - 48.9 °F 96% 30.02 in 0.5 mi South 8.1 mph - N/A Fog Fog
8:08 AM 50.0 °F - 48.2 °F 94% 30.01 in 0.2 mi South 6.9 mph - N/A Fog Fog
8:51 AM 51.8 °F - 50.0 °F 94% 30.02 in 0.5 mi Variable 6.9 mph - N/A Fog Fog
8:53 AM 51.1 °F - 50.0 °F 96% 30.03 in 0.5 mi South 6.9 mph - N/A Fog Fog
9:05 AM 51.8 °F - 50.0 °F 94% 30.02 in 0.2 mi South 6.9 mph - N/A Fog Fog
9:19 AM 51.8 °F - 50.0 °F 94% 30.02 in 0.8 mi SSW 8.1 mph - N/A   Overcast
9:27 AM 51.8 °F - 50.0 °F 94% 30.02 in 1.2 mi South 6.9 mph - N/A   Overcast
9:39 AM 51.8 °F - 50.0 °F 94% 30.02 in 2.5 mi South 9.2 mph - N/A   Overcast
9:53 AM 52.0 °F - 51.1 °F 97% 30.04 in 3.0 mi SSW 10.4 mph - N/A   Overcast
10:00 AM 53.6 °F - 51.8 °F 94% 30.03 in 4.0 mi SSW 11.5 mph 17.3 mph N/A   Overcast
10:12 AM 53.6 °F - 51.8 °F 94% 30.03 in 6.0 mi SSW 10.4 mph - N/A   Overcast
10:51 AM 53.6 °F - 51.8 °F 94% 30.03 in 10.0 mi SSW 12.7 mph 20.7 mph N/A   Mostly Cloudy
10:53 AM 54.0 °F - 51.1 °F 90% 30.04 in 10.0 mi SSW 12.7 mph 20.7 mph N/A   Mostly Cloudy
11:53 AM 55.9 °F - 51.1 °F 84% 30.02 in 10.0 mi SW 9.2 mph 16.1 mph N/A   Mostly Cloudy
12:37 PM 57.2 °F - 51.8 °F 82% 29.99 in 10.0 mi SW 8.1 mph 17.3 mph N/A   Scattered Clouds
12:53 PM 57.9 °F - 51.1 °F 78% 30.01 in 10.0 mi SW 9.2 mph - N/A   Partly Cloudy
1:32 PM 57.2 °F - 51.8 °F 82% 30.01 in 10.0 mi SW 6.9 mph - N/A   Mostly Cloudy
1:53 PM 59.0 °F - 51.1 °F 75% 30.01 in 10.0 mi SSW 10.4 mph - N/A   Scattered Clouds
2:53 PM 57.9 °F - 50.0 °F 75% 30.00 in 10.0 mi South 10.4 mph - N/A   Partly Cloudy
3:53 PM 57.0 °F - 50.0 °F 77% 30.01 in 10.0 mi South 6.9 mph - N/A   Clear
4:53 PM 55.0 °F - 50.0 °F 83% 30.02 in 10.0 mi South 6.9 mph - N/A   Clear
5:53 PM 54.0 °F - 50.0 °F 86% 30.04 in 10.0 mi South 5.8 mph - N/A   Clear
6:53 PM 53.1 °F - 50.0 °F 89% 30.01 in 10.0 mi SSE 4.6 mph - N/A   Clear
7:53 PM 54.0 °F - 50.0 °F 86% 30.01 in 10.0 mi Variable 3.5 mph - N/A   Clear
8:53 PM 54.0 °F - 51.1 °F 90% 30.00 in 10.0 mi Calm Calm - N/A   Scattered Clouds
9:17 PM 53.6 °F - 50.0 °F 88% 29.99 in 10.0 mi Variable 3.5 mph - N/A   Mostly Cloudy
9:53 PM 53.1 °F - 50.0 °F 89% 29.98 in 9.0 mi Calm Calm - N/A   Mostly Cloudy
10:12 PM 53.6 °F - 51.8 °F 94% 29.96 in 10.0 mi Calm Calm - N/A   Mostly Cloudy
10:53 PM 54.0 °F - 50.0 °F 86% 29.96 in 10.0 mi Calm Calm - N/A   Mostly Cloudy
11:53 PM 54.0 °F - 50.0 °F 86% 29.93 in 10.0 mi Variable 3.5 mph - N/A   Overcast